[[{"header":{"parameterUnit":"m.s-1","parameterCategory":1,"la1":30.2991,"la2":30.254,"lo1":-89.0895,"lo2":-89.0444,"dy":0.0017,"dx":0.0017,"nx":28,"ny":28,"refTime":"2025-06-14T03:00:00:Z","depth":0,"parameterNumber":2,"parameterNumberName":"U-component_of_WINDS"},"data":[0,0,0,0,0,0,0,0,0,0,0,0,0,0,0,0,0,0,0,0,0,0,0,0,0,0,0,0,0,0,0,0,0,0,0,0,0,0,0,0,0,0,0,0,0,0,0,0,0,0,0,0,0,0,0,0,0,0,3.0391,3.0393,0,3.0583,3.0585,3.0587,3.0621,3.062,3.0618,3.0617,3.0817,3.0824,3.0831,0,0,0,0,0,0,0,0,0,0,0,0,0,3.0053,3.0059,3.039,3.0393,3.0395,3.0583,3.0585,3.0588,3.0622,3.062,3.0618,3.0616,3.0815,3.0823,3.0832,0,0,0,0,0,0,0,0,0,0,0,0,0,3.0218,3.0061,3.039,3.0434,3.044,3.0582,3.0585,3.0589,3.0622,3.062,3.0617,3.0615,3.0813,3.0822,3.0833,3.0945,0,0,3.0864,3.0869,0,0,0,0,0,0,0,0,3.0208,3.023,3.0426,3.0432,3.0439,3.0576,3.054,3.0708,3.0623,3.0553,3.0617,3.0614,3.0739,3.0755,3.0797,3.0954,3.0963,3.0865,3.0871,3.0876,3.0879,0,0,0,0,0,0,0,3.0197,3.0222,3.0467,3.0428,3.0436,3.0445,3.0466,3.0572,3.0658,3.0559,3.0562,3.0584,3.0742,3.0787,3.0802,3.0966,3.0865,3.0874,3.088,3.0884,3.1221,3.1223,0,0,0,0,0,0,3.0177,3.0212,3.0461,3.0473,3.0315,3.0453,3.0476,3.0534,3.0656,3.0673,3.0586,3.0585,3.0771,3.079,3.0809,3.0946,3.0876,3.0885,3.0891,3.1218,3.1221,3.1224,0,0,0,0,0,0,3.017,3.0199,3.0453,3.0343,3.0376,3.0462,3.0526,3.0539,3.0584,3.0677,3.0692,3.0616,3.0769,3.0795,3.091,3.0953,3.089,3.0899,3.1215,3.1219,3.1223,3.1222,0,0,0,0,0,0,3.016,3.0196,3.024,3.0344,3.0382,3.055,3.0529,3.0545,3.0601,3.0602,3.0709,3.0724,3.0769,3.0894,3.092,3.0966,3.0907,3.1211,3.1217,3.1222,3.1218,3.1225,3.1231,0,0,0,0,0,3.0148,3.0233,3.0242,3.0271,3.0438,3.0552,3.0574,3.0623,3.0604,3.0649,3.0708,3.0721,3.0944,3.0906,3.0935,3.0985,3.1209,3.1215,3.1221,3.1215,3.1224,3.1231,0,0,0,0,0,0,3.0134,3.0248,3.0259,3.038,3.0456,3.0558,3.0615,3.0631,3.0715,3.0713,3.0771,3.0795,3.0906,3.0958,3.0912,3.1098,3.1075,3.1088,3.1061,3.107,3.1076,3.1061,3.0916,0,0,0,0,0,3.0144,3.0227,3.0323,3.0421,3.0458,3.053,3.0582,3.0612,3.0694,3.0727,3.0795,3.0874,3.0962,3.1019,3.1105,3.1226,3.1248,3.1274,3.1281,3.1286,3.1296,3.136,3.1372,3.1245,3.1245,3.1245,0,0,3.0168,3.024,3.029,3.0419,3.0482,3.0566,3.0557,3.0647,3.071,3.0741,3.0853,3.0905,3.0997,3.1115,3.117,3.1161,3.1336,3.1294,3.1297,3.1304,3.1368,3.138,3.139,3.1249,3.1248,3.1248,0,0,3.0254,3.0317,3.0404,3.0466,3.056,3.0607,3.0628,3.0727,3.0762,3.0875,3.0899,3.0975,3.1126,3.1189,3.1241,3.1347,3.1362,3.1374,3.1408,3.147,3.148,3.1489,3.1525,3.1537,3.1383,3.1383,3.1384,0,3.0271,3.0399,3.0448,3.0536,3.0591,3.0621,3.0709,3.0767,3.0885,3.0923,3.0911,3.1098,3.1163,3.1294,3.1319,3.1361,3.1385,3.1362,3.1475,3.1484,3.1494,3.1528,3.1542,3.1384,3.1384,3.1384,3.1384,0,3.0414,3.0502,3.0561,3.0672,3.0734,3.0822,3.0884,3.0941,3.0966,3.1013,3.1126,3.1204,3.1305,3.1339,3.1365,3.1473,3.1464,3.1463,3.1441,3.1505,3.1539,3.1553,3.1385,3.1385,3.1385,3.1385,0,0,3.0498,3.0632,3.0653,3.0702,3.0806,3.0875,3.0963,3.106,3.1107,3.1187,3.1261,3.1387,3.1385,3.1444,3.1477,3.1532,3.1607,3.1524,3.1527,3.1535,3.1728,3.1727,3.1742,3.1618,3.162,3.1623,3.172,0,3.0594,3.0752,3.0797,3.093,3.101,3.1038,3.1115,3.1187,3.1233,3.1308,3.136,3.1446,3.1439,3.1474,3.1529,3.1586,3.1647,3.158,3.1687,3.169,3.1661,3.176,3.1761,3.1849,3.1733,3.1736,3.1737,0,3.0729,3.0808,3.0948,3.1039,3.1074,3.1142,3.1233,3.1305,3.1386,3.1416,3.148,3.1508,3.16,3.1572,3.1699,3.1653,3.1699,3.1733,3.1738,3.1749,3.1717,3.1772,3.1878,3.189,3.1759,3.1757,3.1756,0,3.0772,3.0915,3.1016,3.1057,3.1167,3.1213,3.1261,3.134,3.1395,3.1474,3.151,3.16,3.1649,3.1717,3.1768,3.1744,3.189,3.1867,3.1916,3.1915,3.1945,3.1943,3.2058,3.1977,3.1977,3.1977,3.1976,0,3.0875,3.0959,3.1036,3.1099,3.1193,3.1244,3.1336,3.1385,3.1455,3.1526,3.1557,3.1624,3.1687,3.1762,3.1803,3.19,3.1923,3.1949,3.1958,3.1945,3.1942,3.1976,3.197,3.198,3.198,3.1979,3.1978,0,3.094,3.0995,3.1107,3.1201,3.1226,3.1291,3.1371,3.1432,3.1478,3.1568,3.1593,3.1666,3.1755,3.1812,3.1927,3.1954,3.206,3.2069,3.2032,3.2036,3.2081,3.2075,3.2222,3.2243,3.2148,3.2149,3.215,0,3.1001,3.1065,3.1165,3.1214,3.1262,3.1342,3.1396,3.1448,3.1504,3.16,3.1649,3.174,3.1815,3.1957,3.202,3.2107,3.2117,3.2162,3.2131,3.2114,3.2115,3.211,3.2116,3.2167,3.2168,3.2169,3.2169,0,3.1102,3.1125,3.1203,3.1289,3.1353,3.1424,3.1494,3.1533,3.1597,3.1658,3.1749,3.1807,3.1922,3.2012,3.2104,3.2153,3.2171,3.2178,3.2194,3.2181,3.2156,3.2168,3.2044,3.2175,3.2174,3.2174,3.2174,3.2173,3.1166,3.1224,3.1301,3.1386,3.1444,3.1508,3.1569,3.1622,3.1698,3.1795,3.1821,3.1915,3.1993,3.2118,3.2169,3.2243,3.2237,3.226,3.2266,3.227,3.227,3.2145,3.226,3.226,3.226,3.226,3.226,0,3.1267,3.1318,3.1395,3.1491,3.1557,3.1567,3.1645,3.1699,3.1781,3.1852,3.1924,3.2027,3.2113,3.2182,3.227,3.2316,3.2326,3.2337,3.2334,3.2344,3.2271,3.2248,3.2327,3.2327,3.2327,3.2327,3.2327,3.2327,3.1327,3.1425,3.1457,3.1582,3.1633,3.1724,3.1768,3.1827,3.1883,3.1996,3.2066,3.211,3.2179,3.2272,3.2351,3.2369,3.2399,3.2408,3.2427,3.2357,3.235,3.2343,3.2321,3.2415,3.2415,3.2494,3.2495,3.2496]},{"header":{"parameterUnit":"m.s-1","parameterCategory":1,"la1":30.2991,"la2":30.254,"lo1":-89.0895,"lo2":-89.0444,"dy":0.0017,"dx":0.0017,"nx":28,"ny":28,"refTime":"2025-06-14T03:00:00:Z","depth":0,"parameterNumber":3,"parameterNumberName":"V-component_of_WINDS"},"data":[0,0,0,0,0,0,0,0,0,0,0,0,0,0,0,0,0,0,0,0,0,0,0,0,0,0,0,0,0,0,0,0,0,0,0,0,0,0,0,0,0,0,0,0,0,0,0,0,0,0,0,0,0,0,0,0,0,0,3.1752,3.1755,0,3.1988,3.1991,3.1994,3.2118,3.2118,3.2118,3.2118,3.2357,3.2363,3.2369,0,0,0,0,0,0,0,0,0,0,0,0,0,3.1404,3.1409,3.1752,3.1755,3.1758,3.1988,3.1991,3.1994,3.2118,3.2118,3.2118,3.2119,3.2355,3.2362,3.237,0,0,0,0,0,0,0,0,0,0,0,0,0,3.1589,3.1411,3.1752,3.1847,3.1858,3.1987,3.1991,3.1995,3.2118,3.2118,3.2118,3.2119,3.2353,3.2362,3.2371,3.2421,0,0,3.2399,3.2403,0,0,0,0,0,0,0,0,3.1578,3.1601,3.183,3.1841,3.1854,3.2024,3.1956,3.2138,3.2118,3.2019,3.2118,3.2119,3.2246,3.2264,3.2307,3.2433,3.2443,3.24,3.2405,3.2409,3.2412,0,0,0,0,0,0,0,3.1565,3.1592,3.1846,3.1834,3.1848,3.1877,3.1904,3.1991,3.2128,3.2028,3.2037,3.2064,3.2252,3.2298,3.2314,3.2446,3.24,3.2408,3.2414,3.2417,3.2621,3.2621,0,0,0,0,0,0,3.1537,3.158,3.1838,3.1853,3.1714,3.1883,3.1913,3.1969,3.2127,3.2152,3.2063,3.2069,3.2282,3.2303,3.2323,3.2391,3.2409,3.2418,3.2423,3.2621,3.2621,3.2621,0,0,0,0,0,0,3.1529,3.1559,3.1829,3.1719,3.1756,3.1889,3.1951,3.1973,3.202,3.2154,3.2179,3.2085,3.2283,3.231,3.2395,3.2401,3.2422,3.2431,3.2621,3.2621,3.2621,3.2528,0,0,0,0,0,0,3.1519,3.1556,3.1578,3.1719,3.1761,3.1899,3.1951,3.1978,3.2036,3.2045,3.2181,3.2204,3.2286,3.2381,3.2405,3.2414,3.2438,3.2622,3.2621,3.2621,3.2531,3.2524,3.2519,0,0,0,0,0,3.1506,3.1542,3.1578,3.1609,3.1792,3.1899,3.1923,3.2017,3.2035,3.2058,3.2143,3.22,3.2396,3.2389,3.2416,3.2428,3.2622,3.2621,3.2621,3.2534,3.2526,3.2519,0,0,0,0,0,0,3.1398,3.1563,3.1604,3.1688,3.1778,3.192,3.1951,3.2006,3.2092,3.2097,3.2209,3.2239,3.2313,3.238,3.2368,3.2484,3.2514,3.252,3.2438,3.2432,3.2426,3.2408,3.2445,0,0,0,0,0,3.1384,3.1459,3.1598,3.1657,3.1701,3.1817,3.1868,3.1932,3.203,3.2069,3.2161,3.2253,3.2335,3.2387,3.247,3.254,3.257,3.2562,3.2556,3.255,3.2553,3.2592,3.259,3.262,3.262,3.262,0,0,3.1356,3.1455,3.1495,3.1638,3.1716,3.1789,3.1849,3.1924,3.1979,3.208,3.2167,3.2236,3.2346,3.2423,3.2462,3.2481,3.2551,3.255,3.2544,3.2551,3.2592,3.2589,3.2586,3.262,3.262,3.262,0,0,3.1342,3.1424,3.1483,3.1559,3.1675,3.1752,3.1765,3.1898,3.1949,3.2037,3.2114,3.2179,3.2319,3.2393,3.2449,3.2458,3.2512,3.2482,3.245,3.2487,3.2484,3.2483,3.2484,3.2484,3.2484,3.2484,3.2484,0,3.1292,3.1406,3.1505,3.1576,3.1635,3.1729,3.1787,3.1856,3.1993,3.2031,3.205,3.2225,3.2306,3.2401,3.2402,3.2445,3.2462,3.2467,3.2477,3.2476,3.2476,3.2479,3.2479,3.248,3.248,3.2481,3.2481,0,3.1338,3.1415,3.1448,3.1578,3.1641,3.1704,3.1811,3.1862,3.1919,3.1993,3.208,3.2179,3.2283,3.231,3.2367,3.2411,3.2419,3.2456,3.2489,3.2467,3.2471,3.2473,3.2473,3.2475,3.2476,3.2477,0,0,3.1266,3.1447,3.1457,3.1516,3.165,3.1711,3.1777,3.1879,3.1919,3.201,3.2067,3.2181,3.2215,3.2278,3.2343,3.2376,3.2373,3.2409,3.2413,3.2397,3.2426,3.2397,3.2397,3.2409,3.241,3.2411,3.2416,0,3.127,3.1395,3.1484,3.1573,3.1645,3.1733,3.179,3.1877,3.1946,3.2015,3.2092,3.217,3.221,3.2248,3.2284,3.2366,3.238,3.2367,3.2462,3.2464,3.2432,3.2399,3.237,3.2371,3.2419,3.2419,3.2419,0,3.1293,3.138,3.1476,3.1599,3.1633,3.1683,3.1781,3.1847,3.1945,3.1993,3.2062,3.2128,3.2199,3.2224,3.2322,3.231,3.2354,3.2399,3.2402,3.2414,3.244,3.241,3.2374,3.2373,3.2423,3.2423,3.2423,0,3.1229,3.137,3.1445,3.1493,3.1639,3.1671,3.1733,3.1833,3.1887,3.1972,3.2007,3.2099,3.2149,3.2218,3.2306,3.2316,3.2393,3.2427,3.2434,3.2431,3.2447,3.2445,3.2416,3.2475,3.2475,3.2475,3.2475,0,3.1225,3.128,3.1418,3.1464,3.1527,3.1627,3.1687,3.1756,3.1842,3.1902,3.1983,3.2037,3.215,3.2217,3.2286,3.2355,3.2377,3.2416,3.2434,3.2409,3.2404,3.244,3.2442,3.2475,3.2475,3.2475,3.2475,0,3.1165,3.126,3.1347,3.1477,3.1511,3.1551,3.1662,3.1709,3.1781,3.1855,3.1878,3.1991,3.2073,3.2168,3.2281,3.2328,3.239,3.2417,3.2357,3.2368,3.2369,3.2367,3.2362,3.2365,3.2421,3.242,3.242,0,3.1156,3.12,3.1334,3.138,3.144,3.1513,3.1568,3.1666,3.172,3.1833,3.1866,3.1954,3.203,3.2156,3.2248,3.2334,3.2362,3.2354,3.2376,3.2348,3.2361,3.2357,3.2361,3.2348,3.2347,3.2346,3.2346,0,3.113,3.1174,3.1251,3.1343,3.1406,3.1484,3.1564,3.1597,3.1711,3.1766,3.1851,3.191,3.2024,3.211,3.2207,3.2269,3.2325,3.2338,3.2344,3.2319,3.2282,3.23,3.2341,3.2338,3.2339,3.2339,3.234,3.234,3.1095,3.1138,3.1237,3.1319,3.139,3.1462,3.1512,3.1589,3.1662,3.1764,3.1817,3.19,3.1993,3.2129,3.2188,3.2253,3.2273,3.2282,3.2284,3.2285,3.2276,3.2271,3.2271,3.2272,3.2272,3.2272,3.2273,0,3.1072,3.114,3.1214,3.1324,3.1387,3.1435,3.1525,3.1574,3.1647,3.173,3.1802,3.1898,3.198,3.2076,3.2164,3.2197,3.2225,3.2217,3.2215,3.2228,3.2255,3.2241,3.2193,3.2193,3.2193,3.2193,3.2193,3.2193,3.1068,3.1142,3.1196,3.1304,3.1371,3.1454,3.1501,3.1567,3.1633,3.1736,3.1805,3.1867,3.1955,3.2049,3.2125,3.2151,3.2179,3.2163,3.2196,3.222,3.2226,3.2233,3.222,3.2168,3.2168,3.2164,3.2163,3.2163]}]]